Regional Weather Roundup
Issued by NWS

Home | Current Version | Previous Version | Graphics & Text | Print | Product List | Glossary On
Versions: 1 2 3 4 5 6 7 8 9 10 11 12 13 14 15 16 17 18 19 20 21 22 23 24 25 26 27 28 29 30 31 32 33 34 35 36 37 38 39 40 41 42 43 44 45 46 47 48 49 50
333
ASUS43 KLOT 271808
RWRIL

ILLINOIS REGIONAL WEATHER ROUNDUP
NATIONAL WEATHER SERVICE CHICAGO/ROMEOVILLE IL
100 PM CDT FRI MAY 27 2016

NOTE: "FAIR" INDICATES FEW OR NO CLOUDS BELOW 12,000 FEET WITH NO
SIGNIFICANT WEATHER AND/OR OBSTRUCTIONS TO VISIBILITY.

* THESE STATIONS ARE NOT UNDER NWS QUALITY CONTROL. THEY ALSO MAY NOT
  REPORT WEATHER SUCH AS PRECIPITATION OR FOG.

ILZ001-002-007-009-015-016-024-271900-
NORTHWEST ILLINOIS

CITY           SKY/WX    TMP DP  RH WIND       PRES   REMARKS
MOLINE         CLOUDY    76  66  71 S12       29.80F
6HR MIN TEMP:  66; 6HR MAX TEMP:  77; 6HR PCP: TRACE;

STERLING*      CLOUDY    79  65  62 SE10G22   29.82F HX  81
SAVANNA*       CLOUDY    77  67  71 S15       29.81F
$$

ILZ003-004-008-010-011-017-018-271900-
NORTH CENTRAL ILLINOIS

CITY           SKY/WX    TMP DP  RH WIND       PRES   REMARKS
ROCKFORD       CLOUDY    79  64  60 SE16      29.85F HX  81
6HR MIN TEMP:  69; 6HR MAX TEMP:  82; 6HR PCP: TRACE;

FREEPORT*      CLOUDY    79  65  61 SE21      29.84F HX  81
ROCHELLE*      CLOUDY    79  65  60 S18G28    29.84F HX  81
DE KALB*       CLOUDY    79  65  63 S17G24    29.87F HX  80
$$

ILZ005-006-012>014-019>023-271900-
NORTHEAST ILLINOIS

CITY           SKY/WX    TMP DP  RH WIND       PRES   REMARKS
CHICAGO-OHARE  PTSUNNY   80  65  59 S9        29.87F HX  82
6HR MIN TEMP:  68; 6HR MAX TEMP:  80; 6HR PCP:  0.02;

CHICAGO-MIDWAY PTSUNNY   83  62  49 S13G26    29.87F HX  84
6HR MIN TEMP:  70; 6HR MAX TEMP:  83;

AURORA         CLOUDY    82  66  58 S16       29.86F HX  84
6HR MIN TEMP:  69; 6HR MAX TEMP:  82; 6HR PCP: TRACE;

LANSING*       CLOUDY    80  63  56 S14G22    29.90F HX  81
JOLIET*        CLOUDY    82  65  56 S20       29.88F HX  84
WAUKEGAN       LGT RAIN  74  67  78 SE10      29.88F
6HR MIN TEMP:  70; 6HR MAX TEMP:  76; 6HR PCP: TRACE;

DUPAGE AIRPORT PTSUNNY   80  65  59 S13G25    29.86F HX  82
6HR MIN TEMP:  68; 6HR MAX TEMP:  80; 6HR PCP:  0.05;

KANKAKEE*      CLOUDY    80  65  60 S15G23    29.90F HX  82
WHEELING       MOSUNNY   80  65  59 S15G21    29.88F HX  82
6HR MIN TEMP:  69; 6HR MAX TEMP:  80; 6HR PCP:  0.05;

MORRIS*        CLOUDY    82  62  50 S21       29.85F HX  83
ROMEOVILLE*    CLOUDY    83  60  46 S18G26    29.87F HX  83
NORTHERLY ISL    N/A     78  63  59 S16         N/A  HX  80
NORTHERLY ISL    N/A     78  63  59 S16         N/A  HX  80
$$

LMZ740>746-271900-
SOUTHERN LAKE MICHIGAN

STATION/POSITION SKY/WX   TEMP    WIND        PRES    VSBY  WAVE
                          AIR SEA DIR/SP/G                  HT/PER
                          (F)     (DEG/KT/KT) (MB)    (MI)  (FT/S)
SOUTHERN BUOY              56 50  140/ 10/ 12 1012.9F         1/ 3
WILMETTE HARBOR            63 58  140/ 10/ 12   N/A           1
HARRISON CRIB              73     160/ 12/ 13   N/A
BURNHAM HARBOR             72     110/  5/ 14   N/A
CALUMET HARBOR             78     180/  9/ 15 1012.2F
BURNS HARBOR               77     200/ 11/ 17 1013.5F
MICHIGAN CITY              76     170/ 12/ 15   N/A
MICHIGAN CITY 6N           69 60  210/  6/  8   N/A           1
ST. JOSEPH                 68 63   20/  2/  4   N/A           1
$$

ILZ025>027-034>036-040-047-049-050-058-095>099-271900-
WEST-CENTRAL ILLINOIS

CITY           SKY/WX    TMP DP  RH WIND       PRES   REMARKS
QUINCY         CLOUDY    74  67  78 S14G22    29.79F
GALESBURG*     CLOUDY    72  66  82 S13G20    29.82S
MACOMB*        CLOUDY    71  67  88 S16       29.83S
JACKSONVILLE*  CLOUDY    74  68  81 S15G21    29.83F
PITTSFIELD*    PTSUNNY   76  70  83 S14G26    29.81F
$$

ILZ028>032-037-038-041>044-048-051>054-059>061-271900-
CENTRAL ILLINOIS

CITY           SKY/WX    TMP DP  RH WIND       PRES   REMARKS
PONTIAC        CLOUDY    80  66  61 S21       29.87F HX  82
BLOOMINGTON    PTSUNNY   75  68  79 S24G30    29.88F
DECATUR        CLOUDY    78  67  68 S15G28    29.87F HX  80
PEORIA         CLOUDY    75  65  70 S18       29.84S
6HR MIN TEMP:  69; 6HR MAX TEMP:  77;

LACON*         CLOUDY    77  63  61 S15G21    29.83F
LINCOLN*       CLOUDY    75  68  78 S18       29.85F
SPRINGFIELD    PTSUNNY   77  68  73 S17G23    29.84F
6HR MIN TEMP:  69; 6HR MAX TEMP:  78; 6HR PCP: TRACE;

TAYLORVILLE    PTSUNNY   74  69  82 SE18      29.86F
6HR MIN TEMP:  66; 6HR MAX TEMP:  75;

$$

ILZ033-039-045-046-055>057-062-063-271900-
EAST-CENTRAL ILLINOIS

CITY           SKY/WX    TMP DP  RH WIND       PRES   REMARKS
CHAMPAIGN      CLOUDY    78  63  59 S21       29.90F HX  80
RANTOUL*       CLOUDY    82  66  58 S17G30    29.90F HX  84
MATTOON        CLOUDY    76  64  66 S13G23    29.89F
PARIS*         CLOUDY    81  69  67 S12       29.93F HX  83
$$

ILZ079-100>102-271900-
SOUTHWEST ILLINOIS

CITY           SKY/WX    TMP DP  RH WIND       PRES   REMARKS
ALTON          CLOUDY    73  68  83 S13       29.86S
BELLEVILLE     CLOUDY    75  74  96 SE13G20   29.86S
CAHOKIA*       CLOUDY    75  68  78 S9        29.85F
SPARTA*        CLOUDY    72  69  92 SE12G18   29.89S
$$

ILZ064>066-069>071-074>076-080>082-084>086-088>090-092>094-271900-
SOUTH-CENTRAL ILLINOIS

CITY           SKY/WX    TMP DP  RH WIND       PRES   REMARKS
CARBONDALE     CLOUDY    76  70  82 S10       29.90F
6HR MIN TEMP:  66; 6HR MAX TEMP:  76; 6HR PCP:  0.31;

CAIRO*         CLOUDY    77  71  81 S9        29.91F
EFFINGHAM*     CLOUDY    76  70  83 SE14G21   29.91F
MARION         PTSUNNY   79  73  83 S12G23    29.92F HX  82
MT. VERNON     CLOUDY    75  68  78 S10       29.92F
CENTRALIA*     CLOUDY    73  70  92 SE15      29.89F
SALEM*         CLOUDY    73  69  86 SE14      29.90S
METROPOLIS*    PTSUNNY   81  73  76 S10G20    29.94S HX  86
$$

ILZ067-068-072-073-078-083-087-091-271900-
SOUTHEAST ILLINOIS

CITY           SKY/WX    TMP DP  RH WIND       PRES   REMARKS
LAWRENCEVILLE  CLOUDY    82  70  66 S15       29.94F HX  86
FLORA*         PTSUNNY   78  70  76 S15       29.92F HX  80
FAIRFIELD*     CLOUDY    78  70  76 SE10      29.91F HX  81
HARRISBURG*    CLOUDY    80  72  77 S12G23    29.93F HX  83
ROBINSON*      PTSUNNY   79  70  73 S12       29.94F HX  82
CARMI*         MOSUNNY   79  72  78 S13       29.93F HX  82
$$

ABBREVIATIONS USED IN REMARKS
   TC - TEMPERATURE IN CELSIUS
  WCI - WIND CHILL INDEX
   HX - HEAT INDEX
  VSB - VISIBILITY
$$





USA.gov is the U.S. government's official web portal to all federal, state and local government web resources and services.